Mosinee, WI

12:40 AM CDT on October 18, 2017 (GMT -0500)
Central Wisconsin

Weather History for KCWA - March, 2014

Change the Weather History Date:

Sunday, March 2, 2014

  Actual Average Record
Temperature  
Mean Temperature -6 °F -  
Max Temperature 1 °F 28 °F 37 °F (1998)
Min Temperature -13 °F 12 °F -13 °F (2014)
Degree Days  
Heating Degree Days 71    
Moisture  
Dew Point -19 °F    
Average Humidity 52    
Maximum Humidity 65    
Minimum Humidity 39    
Precipitation  
Precipitation 0.00 in - - ()
Sea Level Pressure  
Sea Level Pressure 30.37 in    
Wind  
Wind Speed 10 mph (NW)    
Max Wind Speed 14 mph    
Max Gust Speed 17 mph    
Visibility 10 miles    
Events      
Averages and records for this station are not official NWS values.
T = Trace of Precipitation, MM = Missing Value Source: NWS Daily Summary

Daily Weather History Graph

Daily Weather History Graph

Search for Another Location

Airport or City:

Trip Planner

Search our weather history database for the weather conditions in past years. The results will help you decide how hot, cold, wet, or windy it might be!

Date:

Astronomy

Mar. 02, 2014 Rise Set
Actual Time 6:34 AM CST 5:47 PM CST
Civil Twilight 6:05 AM CST 6:17 PM CST
Nautical Twilight 5:31 AM CST 6:50 PM CST
Astronomical Twilight 4:57 AM CST 7:24 PM CST
Moon 7:00 AM CST (3/2) 7:50 PM CST (3/2)
Length of Visible Light 12h 11m
Length of Day
11h 13m
Waxing Crescent, 3% of the Moon is Illuminated
Mar 2
Waxing Crescent
Mar 8
First Quarter
Mar 16
Full
Mar 23
Last Quarter
Mar 30
New

Hourly Weather History & Observations

Time (CST) Temp. Windchill Dew Point Humidity Pressure Visibility Wind Dir Wind Speed Gust Speed Precip Events Conditions
12:00 AM -2.2 °F -18.9 °F -16.6 °F 50% 30.35 in 10.0 mi NNW 10.4 mph 16.1 mph N/A   Mostly Cloudy
12:15 AM -2.2 °F -18.9 °F -16.6 °F 50% 30.34 in 10.0 mi NNW 10.4 mph - N/A   Overcast
12:35 AM -4.0 °F -22.1 °F -16.6 °F 55% 30.35 in 10.0 mi NNW 11.5 mph - N/A   Scattered Clouds
12:55 AM -4.0 °F -21.2 °F -18.4 °F 50% 30.36 in 10.0 mi NNW 10.4 mph - N/A   Scattered Clouds
1:15 AM -4.0 °F -21.2 °F -16.6 °F 55% 30.37 in 10.0 mi NNW 10.4 mph - N/A   Clear
1:35 AM -4.0 °F -21.2 °F -16.6 °F 55% 30.36 in 10.0 mi NNW 10.4 mph - N/A   Clear
1:55 AM -4.0 °F -21.2 °F -16.6 °F 55% 30.36 in 10.0 mi North 10.4 mph - N/A   Scattered Clouds
2:15 AM -4.0 °F -19.0 °F -18.4 °F 50% 30.36 in 10.0 mi NNW 8.1 mph - N/A   Scattered Clouds
2:35 AM -4.0 °F -20.2 °F -18.4 °F 50% 30.37 in 10.0 mi NNW 9.2 mph - N/A   Scattered Clouds
2:55 AM -4.0 °F -21.2 °F -18.4 °F 50% 30.37 in 10.0 mi NNW 10.4 mph - N/A   Clear
3:15 AM -4.0 °F -21.2 °F -18.4 °F 50% 30.37 in 10.0 mi NNW 10.4 mph - N/A   Clear
3:35 AM -4.0 °F -22.1 °F -18.4 °F 50% 30.37 in 10.0 mi NNW 11.5 mph - N/A   Clear
3:55 AM -5.8 °F -21.2 °F -18.4 °F 55% 30.37 in 10.0 mi NNW 8.1 mph - N/A   Clear
4:15 AM -5.8 °F -24.4 °F -20.2 °F 50% 30.37 in 10.0 mi NNW 11.5 mph - N/A   Clear
4:35 AM -5.8 °F -22.4 °F -22.0 °F 46% 30.37 in 10.0 mi NNW 9.2 mph - N/A   Clear
5:45 AM -11.2 °F -26.4 °F -23.8 °F 54% 30.38 in 10.0 mi NW 6.9 mph - N/A   Clear
6:45 AM -13.0 °F -27.0 °F -23.8 °F 59% 30.39 in 10.0 mi NW 5.8 mph - N/A   Clear
7:50 AM -11.2 °F -27.8 °F -25.6 °F 49% 30.40 in 10.0 mi WNW 8.1 mph - N/A   Clear
8:50 AM -9.4 °F -27.9 °F -25.6 °F 45% 30.40 in 10.0 mi NW 10.4 mph - N/A   Clear
9:50 AM -7.6 °F -24.6 °F -23.8 °F 45% 30.39 in 10.0 mi WNW 9.2 mph - N/A   Clear
10:45 AM -7.6 °F -22.1 °F -22.0 °F 50% 30.40 in 10.0 mi West 6.9 mph - N/A   Clear
11:45 AM -5.8 °F -19.9 °F -20.2 °F 50% 30.39 in 10.0 mi NW 6.9 mph - N/A   Clear
12:50 PM -2.2 °F -18.9 °F -20.2 °F 42% 30.38 in 10.0 mi WSW 10.4 mph - N/A   Clear
1:45 PM -0.4 °F -17.6 °F -18.4 °F 43% 30.38 in 10.0 mi West 11.5 mph 17.3 mph N/A   Clear
2:45 PM -0.4 °F -17.6 °F -18.4 °F 43% 30.35 in 10.0 mi West 11.5 mph - N/A   Clear
3:50 PM 1.4 °F -16.1 °F -18.4 °F 39% 30.33 in 10.0 mi West 12.7 mph - N/A   Clear
4:47 PM -0.4 °F -19.2 °F -18.4 °F 43% 30.34 in 10.0 mi West 13.8 mph - N/A   Clear
5:50 PM -2.2 °F -18.9 °F -18.4 °F 46% 30.35 in 10.0 mi West 10.4 mph - N/A   Clear
6:50 PM - - - N/A% 30.35 in 10.0 mi West 10.4 mph - N/A   Clear
7:50 PM - - - N/A% 30.35 in 10.0 mi West 9.2 mph - N/A   Clear
8:50 PM - - - N/A% 30.36 in 10.0 mi WNW 12.7 mph - N/A   Clear
9:15 PM -4.0 °F -21.2 °F -14.8 °F 60% 30.37 in 10.0 mi WNW 10.4 mph - N/A   Clear
9:35 PM -5.8 °F -21.2 °F -14.8 °F 65% 30.37 in 10.0 mi WNW 8.1 mph - N/A   Clear
9:45 PM - - - N/A% 30.38 in 10.0 mi WNW 8.1 mph - N/A   Clear
9:55 PM -5.8 °F -19.9 °F -14.8 °F 65% 30.38 in 10.0 mi WNW 6.9 mph - N/A   Clear
10:15 PM -5.8 °F -21.2 °F -14.8 °F 65% 30.39 in 10.0 mi WNW 8.1 mph - N/A   Clear
10:35 PM -5.8 °F -19.9 °F -16.6 °F 60% 30.40 in 10.0 mi WNW 6.9 mph - N/A   Clear
10:55 PM -5.8 °F -19.9 °F -16.6 °F 60% 30.40 in 10.0 mi WNW 6.9 mph - N/A   Clear
11:15 PM -7.6 °F -22.1 °F -16.6 °F 65% 30.40 in 10.0 mi NW 6.9 mph - N/A   Clear
11:35 PM -7.6 °F -22.1 °F -18.4 °F 59% 30.40 in 10.0 mi NW 6.9 mph - N/A   Clear
11:55 PM -7.6 °F -16.5 °F -18.4 °F 59% 30.41 in 10.0 mi WNW 3.5 mph - N/A   Clear